DW1520 Weather Reports


Display with metric or nautical units.
time (UTC)temp
F
wind
direction
speed
MPH
gust
MPH
rain 1hr
in
rain 24hr
in
rain mn
in
humidity
%
barometer
mb
20260905165006 74 324 1.0 3.0 0.00 0.00 0.00 88 1014.4
20260905164506 74 332 1.0 3.0 0.00 0.00 0.00 88 1014.2
20260905164006 74 350 1.0 3.0 0.00 0.00 0.00 88 1014.1
20260905163506 74 333 1.0 3.0 0.00 0.00 0.00 88 1014.0
20260905162506 74 29 1.0 3.0 0.00 0.00 0.00 89 1014.0
20260905162006 74 29 1.0 3.0 0.00 0.00 0.00 88 1014.0
20260905161006 74 32 2.0 3.0 0.00 0.00 0.00 88 1014.0
20260905160506 74 53 2.0 3.0 0.00 0.00 0.00 89 1014.0
20260905160006 74 144 0.0 2.0 0.00 0.00 0.00 89 1014.0
20260905155506 74 106 1.0 2.0 0.00 0.00 0.00 89 1014.0
20260905155006 73 21 1.0 3.0 0.00 0.00 0.00 90 1013.9
20260905154506 73 331 1.0 3.0 0.00 0.00 0.00 90 1013.8
20260905153506 73 38 1.0 3.0 0.00 0.00 0.00 90 1013.8
20260905153006 73 33 2.0 3.0 0.00 0.00 0.00 91 1013.7
20260905152006 72 13 1.0 3.0 0.00 0.00 0.00 91 1013.7
20260905151506 72 12 0.0 3.0 0.00 0.00 0.00 92 1013.8
20260905151006 72 1 1.0 3.0 0.00 0.00 0.00 92 1013.8
20260905150006 72 5 0.0 3.0 0.00 0.00 0.00 92 1013.5
20260905145506 72 11 1.0 3.0 0.00 0.00 0.00 92 1013.5
20260905145006 71 355 1.0 3.0 0.00 0.00 0.00 92 1013.5
20260905144506 71 48 1.0 3.0 0.00 0.00 0.00 92 1013.5
20260905144006 71 13 0.0 3.0 0.00 0.00 0.00 92 1013.5
20260905143506 71 26 1.0 3.0 0.00 0.00 0.00 92 1013.5
20260905142506 71 5 0.0 2.0 0.00 0.00 0.00 92 1013.4
20260905142006 71 5 1.0 2.0 0.00 0.00 0.00 93 1013.4
20260905141506 71 5 0.0 3.0 0.00 0.00 0.00 93 1013.3
20260905141006 71 33 0.0 2.0 0.00 0.00 0.00 93 1013.3
20260905140506 71 12 0.0 3.0 0.00 0.00 0.00 93 1013.3
20260905140005 71 12 0.0 2.0 0.00 0.00 0.00 92 1013.2
20260905135006 70 16 1.0 2.0 0.00 0.00 0.00 92 1013.1
20260905134506 70 16 1.0 3.0 0.00 0.00 0.00 93 1013.1
20260905134006 70 0 1.0 3.0 0.00 0.00 0.00 93 1013.1
20260905133506 70 44 1.0 3.0 0.00 0.00 0.00 93 1013.0
20260905133006 70 44 1.0 3.0 0.00 0.00 0.00 93 1012.9
20260905132506 70 37 1.0 3.0 0.00 0.00 0.00 93 1012.9
20260905132006 70 342 0.0 2.0 0.00 0.00 0.00 92 1012.8
20260905131506 70 57 1.0 3.0 0.00 0.00 0.00 92 1012.6
20260905131006 70 17 1.0 3.0 0.00 0.00 0.00 92 1012.5
20260905130506 70 11 1.0 2.0 0.00 0.00 0.00 92 1012.3
20260905130006 70 25 1.0 3.0 0.00 0.00 0.00 92 1012.2
20260905125510 70 0 1.0 3.0 0.00 0.00 0.00 92 1012.1
20260905125006 70 9 2.0 3.0 0.00 0.00 0.00 93 1011.9
20260905124506 70 7 2.0 3.0 0.00 0.00 0.00 93 1011.8
20260905124006 70 34 2.0 5.0 0.00 0.00 0.00 93 1011.7
20260905123505 70 345 1.0 3.0 0.00 0.00 0.00 92 1011.6
20260905123006 70 34 1.0 2.0 0.00 0.00 0.00 92 1011.6
20260905122006 71 358 1.0 3.0 0.00 0.00 0.00 93 1011.7
20260905121506 71 351 1.0 2.0 0.00 0.00 0.00 93 1011.6
20260905120506 71 351 1.0 3.0 0.00 0.00 0.00 93 1011.6
20260905120006 71 355 1.0 3.0 0.00 0.00 0.00 93 1011.6
20260905115505 71 355 1.0 3.0 0.00 0.00 0.00 93 1011.7
20260905115006 71 355 0.0 2.0 0.00 0.00 0.00 93 1011.7
20260905114506 71 355 1.0 3.0 0.00 0.00 0.00 92 1011.6
20260905114006 71 355 0.0 1.0 0.00 0.00 0.00 93 1011.7
20260905113508 71 355 0.0 2.0 0.00 0.00 0.00 93 1011.6
20260905113006 71 355 1.0 3.0 0.00 0.00 0.00 93 1011.5
20260905112506 71 9 1.0 2.0 0.00 0.00 0.00 93 1011.5
20260905112006 71 5 1.0 3.0 0.00 0.00 0.00 93 1011.4
20260905111506 71 16 1.0 2.0 0.00 0.00 0.00 92 1011.4
20260905111006 71 26 1.0 3.0 0.00 0.00 0.00 92 1011.4
20260905110506 71 50 0.0 2.0 0.00 0.00 0.00 92 1011.4
20260905110005 71 50 0.0 1.0 0.00 0.00 0.00 93 1011.5
20260905105506 71 50 1.0 2.0 0.00 0.00 0.00 93 1011.4
20260905105006 71 355 0.0 2.0 0.00 0.00 0.00 93 1011.4
20260905104006 71 355 0.0 1.0 0.00 0.00 0.00 93 1011.4
20260905103506 71 355 0.0 1.0 0.00 0.00 0.00 93 1011.4
20260905103006 71 355 1.0 3.0 0.00 0.00 0.00 93 1011.4
20260905102506 71 355 1.0 3.0 0.00 0.00 0.00 93 1011.3
20260905102006 71 79 0.0 1.0 0.00 0.00 0.00 92 1011.5
20260905101006 70 79 0.0 2.0 0.00 0.00 0.00 92 1011.1
20260905100506 70 25 0.0 2.0 0.00 0.00 0.00 92 1010.8
20260905100006 70 340 1.0 3.0 0.00 0.00 0.00 92 1010.8
20260905095506 70 22 0.0 3.0 0.00 0.00 0.00 92 1010.7
20260905095006 70 22 1.0 2.0 0.00 0.00 0.00 92 1010.7
20260905094505 70 348 1.0 2.0 0.00 0.00 0.00 92 1010.6
20260905094006 70 5 1.0 2.0 0.00 0.00 0.00 92 1010.6
20260905093505 70 5 1.0 2.0 0.00 0.00 0.00 92 1010.7
20260905093006 70 5 1.0 3.0 0.00 0.00 0.00 92 1010.6
20260905092506 70 334 1.0 3.0 0.00 0.00 0.00 92 1010.6
20260905091506 70 327 0.0 2.0 0.00 0.00 0.00 92 1010.8
20260905090506 70 6 1.0 3.0 0.00 0.00 0.00 92 1010.9
20260905090006 70 5 0.0 2.0 0.00 0.00 0.00 92 1010.9
20260905085506 70 5 0.0 1.0 0.00 0.00 0.00 92 1011.0
20260905085006 70 5 0.0 3.0 0.00 0.00 0.00 92 1011.0
20260905084506 69 5 1.0 2.0 0.00 0.00 0.00 92 1011.0
20260905084006 69 5 0.0 0.0 0.00 0.00 0.00 92 1011.1
20260905083506 69 5 0.0 0.0 0.00 0.00 0.00 92 1011.2
20260905082506 70 5 0.0 0.0 0.00 0.00 0.00 92 1011.2
20260905082006 70 5 0.0 2.0 0.00 0.00 0.00 92 1011.0
20260905081505 70 5 0.0 1.0 0.00 0.00 0.00 91 1011.0
20260905081006 70 5 0.0 0.0 0.00 0.00 0.00 91 1011.1
20260905080505 70 5 0.0 1.0 0.00 0.00 0.00 91 1011.1
20260905080006 70 5 0.0 0.0 0.00 0.00 0.00 91 1011.2
20260905075505 71 5 0.0 1.0 0.00 0.00 0.00 91 1011.1
20260905075006 71 5 0.0 0.0 0.00 0.00 0.00 91 1011.1
20260905074506 71 5 0.0 0.0 0.00 0.00 0.00 91 1011.1
20260905073505 71 5 0.0 1.0 0.00 0.00 0.00 91 1011.0
20260905073006 71 5 0.0 1.0 0.00 0.00 0.00 91 1011.0
20260905072505 71 5 0.0 1.0 0.00 0.00 0.00 91 1011.1
20260905072006 71 5 0.0 1.0 0.00 0.00 0.00 91 1011.0
20260905071506 71 5 0.0 0.0 0.00 0.00 0.00 91 1010.9
20260905070506 71 5 0.0 0.0 0.00 0.00 0.00 91 1010.8
20260905070005 72 5 0.0 0.0 0.00 0.00 0.00 91 1010.9
20260905065006 72 5 0.0 0.0 0.00 0.00 0.00 91 1010.8
20260905064505 72 5 0.0 1.0 0.00 0.00 0.00 91 1010.9
20260905063505 72 5 0.0 1.0 0.00 0.00 0.00 90 1010.8
20260905063006 72 5 0.0 0.0 0.00 0.00 0.00 90 1010.9
20260905062505 72 5 0.0 1.0 0.00 0.00 0.00 90 1010.7
20260905062006 73 5 0.0 1.0 0.00 0.00 0.00 90 1010.7
20260905061506 73 5 0.0 0.0 0.00 0.00 0.00 90 1010.8
20260905060505 73 5 0.0 0.0 0.00 0.00 0.00 90 1010.6
20260905060005 73 5 0.0 1.0 0.00 0.00 0.00 90 1010.7
20260905055505 73 5 0.0 1.0 0.00 0.00 0.00 90 1010.7
20260905055006 73 5 0.0 1.0 0.00 0.00 0.00 90 1010.7
20260905054505 74 5 0.0 1.0 0.00 0.00 0.00 90 1010.6
20260905053006 74 5 0.0 1.0 0.00 0.00 0.00 90 1010.5
20260905052506 74 5 0.0 1.0 0.00 0.00 0.00 90 1010.4
20260905052005 74 5 0.0 2.0 0.00 0.00 0.00 90 1010.3
20260905051506 75 5 0.0 0.0 0.00 0.00 0.00 90 1010.2
20260905051006 75 5 0.0 0.0 0.00 0.00 0.00 90 1010.2
20260905050505 75 5 0.0 0.0 0.00 0.00 0.00 90 1010.2
20260905050006 75 5 0.0 0.0 0.00 0.00 0.00 90 1010.2
20260905045506 75 5 0.0 0.0 0.00 0.00 0.00 90 1010.1
20260905045006 75 5 0.0 0.0 0.00 0.00 0.00 90 1010.1
20260905044505 75 5 0.0 0.0 0.00 0.00 0.00 90 1010.2
20260905044006 76 5 0.0 0.0 0.00 0.00 0.00 90 1010.2
20260905043506 76 5 0.0 0.0 0.00 0.00 0.00 90 1010.1
20260905042506 76 5 0.0 0.0 0.00 0.00 0.00 89 1010.2
20260905042006 76 5 0.0 0.0 0.00 0.00 0.00 89 1010.2
20260905041506 76 5 0.0 0.0 0.00 0.00 0.00 89 1010.2
20260905041006 77 5 0.0 0.0 0.00 0.00 0.00 89 1010.2
20260905040506 77 5 0.0 0.0 0.00 0.00 0.00 89 1010.1
20260905035506 77 5 0.0 0.0 0.00 0.00 0.00 88 1010.1
20260905034506 78 5 0.0 0.0 0.00 0.00 0.00 88 1010.2
20260905033506 78 5 0.0 1.0 0.00 0.00 0.00 88 1010.1
20260905032506 79 5 0.0 1.0 0.00 0.00 0.00 87 1010.1
20260905031506 79 5 0.0 1.0 0.00 0.00 0.00 87 1010.1
20260905031006 79 5 0.0 2.0 0.00 0.00 0.00 87 1010.1
20260905030005 80 11 1.0 2.0 0.00 0.00 0.00 86 1010.1
20260905025506 80 11 1.0 3.0 0.00 0.00 0.00 86 1010.2
20260905024506 80 345 0.0 2.0 0.00 0.00 0.00 87 1010.2
20260905024006 80 344 1.0 3.0 0.00 0.00 0.00 87 1010.2
20260905023505 80 344 0.0 2.0 0.00 0.00 0.00 87 1010.0
20260905023005 81 344 1.0 3.0 0.00 0.00 0.00 87 1010.0
20260905022506 81 344 1.0 3.0 0.00 0.00 0.00 87 1009.9
20260905022006 81 140 1.0 3.0 0.00 0.00 0.00 87 1009.8
20260905021505 81 155 1.0 2.0 0.00 0.00 0.00 87 1009.8
20260905021006 81 155 1.0 3.0 0.00 0.00 0.00 86 1009.7
20260905020506 81 155 1.0 2.0 0.00 0.00 0.00 86 1009.6
20260905020006 81 155 0.0 1.0 0.00 0.00 0.00 86 1009.6
20260905015505 81 155 0.0 2.0 0.00 0.00 0.00 86 1009.4
20260905015006 82 155 0.0 2.0 0.00 0.00 0.00 85 1009.3
20260905014505 82 155 0.0 1.0 0.00 0.00 0.00 85 1009.3
20260905014006 82 155 0.0 0.0 0.00 0.00 0.00 84 1009.3
20260905013506 82 155 0.0 1.0 0.00 0.00 0.00 84 1009.2
20260905013006 83 155 0.0 2.0 0.00 0.00 0.00 84 1009.2
20260905012506 83 155 0.0 0.0 0.00 0.00 0.00 83 1009.0
20260905012006 83 155 0.0 0.0 0.00 0.00 0.00 83 1009.0
20260905011505 83 155 0.0 0.0 0.00 0.00 0.00 82 1009.0
20260905011006 84 155 0.0 1.0 0.00 0.00 0.00 82 1008.8
20260905010506 84 155 0.0 0.0 0.00 0.00 0.00 82 1008.8
20260905010005 84 155 0.0 0.0 0.00 0.00 0.00 81 1008.7
20260905005506 85 155 0.0 1.0 0.00 0.00 0.00 81 1008.7
20260905005005 85 155 0.0 2.0 0.00 0.00 0.00 80 1008.6
20260905004006 85 155 1.0 2.0 0.00 0.00 0.00 80 1008.6
20260905003506 85 155 0.0 1.0 0.00 0.00 0.00 80 1008.6
20260905003006 85 155 1.0 2.0 0.00 0.00 0.00 79 1008.5
20260905002505 85 155 0.0 1.0 0.00 0.00 0.00 78 1008.5
20260905002006 86 155 0.0 2.0 0.00 0.00 0.00 78 1008.3
20260905001505 86 155 0.0 2.0 0.00 0.00 0.00 77 1008.3
20260905001006 86 155 1.0 3.0 0.00 0.00 0.00 76 1008.2
20260905000505 86 155 1.0 2.0 0.00 0.00 0.00 76 1008.2
20260904235505 87 155 2.0 3.0 0.00 0.00 0.00 75 1008.2
20260904234505 87 155 2.0 3.0 0.00 0.00 0.00 74 1008.2
20260904234006 87 155 3.0 7.0 0.00 0.00 0.00 73 1008.2
20260904233506 87 165 2.0 6.0 0.00 0.00 0.00 73 1008.2
20260904233006 87 165 2.0 6.0 0.00 0.00 0.00 73 1008.2
20260904232006 88 162 2.0 3.0 0.00 0.00 0.00 72 1008.2
20260904231506 88 162 1.0 2.0 0.00 0.00 0.00 73 1008.1
20260904231006 88 163 2.0 5.0 0.00 0.00 0.00 72 1008.1
20260904230506 88 163 2.0 3.0 0.00 0.00 0.00 72 1008.2
20260904230005 88 163 2.0 5.0 0.00 0.00 0.00 72 1008.1
20260904225505 88 163 1.0 5.0 0.00 0.00 0.00 72 1008.0
20260904224505 88 163 1.0 3.0 0.00 0.00 0.00 71 1008.0
20260904224006 89 163 1.0 2.0 0.00 0.00 0.00 70 1008.0
20260904223005 89 163 0.0 2.0 0.00 0.00 0.00 69 1007.8
20260904222006 89 163 1.0 5.0 0.00 0.00 0.00 70 1007.7
20260904221505 89 163 3.0 5.0 0.00 0.00 0.00 69 1007.8
20260904221006 89 163 2.0 5.0 0.00 0.00 0.00 69 1007.7
20260904220506 89 163 2.0 5.0 0.00 0.00 0.00 69 1007.7
20260904220006 89 163 2.0 5.0 0.00 0.00 0.00 69 1007.6
20260904215505 89 163 3.0 5.0 0.00 0.00 0.00 69 1007.7
20260904215006 89 163 2.0 5.0 0.00 0.00 0.00 70 1007.6
20260904214506 90 163 2.0 5.0 0.00 0.00 0.00 70 1007.7
20260904214005 90 163 4.0 7.0 0.00 0.00 0.00 69 1007.6
20260904213006 90 175 3.0 7.0 0.00 0.00 0.00 67 1007.7
20260904212005 90 153 2.0 5.0 0.00 0.00 0.00 69 1007.7
20260904211505 90 144 2.0 3.0 0.00 0.00 0.00 70 1007.7
20260904211006 91 158 2.0 5.0 0.00 0.00 0.00 69 1007.7
20260904210506 91 144 2.0 6.0 0.00 0.00 0.00 68 1007.6
20260904210005 91 161 3.0 6.0 0.00 0.00 0.00 67 1007.6
20260904205506 91 163 2.0 6.0 0.00 0.00 0.00 67 1007.7
20260904205006 91 146 2.0 3.0 0.00 0.00 0.00 68 1007.6
20260904204006 91 144 2.0 5.0 0.00 0.00 0.00 67 1007.6
20260904203505 91 143 2.0 3.0 0.00 0.00 0.00 67 1007.6
20260904203005 91 144 2.0 6.0 0.00 0.00 0.00 68 1007.6
20260904202505 92 170 3.0 6.0 0.00 0.00 0.00 67 1007.6
20260904202005 92 170 2.0 5.0 0.00 0.00 0.00 67 1007.6
20260904200505 92 170 3.0 5.0 0.00 0.00 0.00 64 1007.6
20260904200005 93 170 2.0 5.0 0.00 0.00 0.00 66 1007.6
20260904195506 93 170 1.0 3.0 0.00 0.00 0.00 66 1007.6
20260904194006 93 170 2.0 6.0 0.00 0.00 0.00 63 1007.6
20260904193506 94 170 1.0 2.0 0.00 0.00 0.00 61 1007.6
20260904193006 94 170 0.0 5.0 0.00 0.00 0.00 61 1007.6
20260904192506 94 170 3.0 5.0 0.00 0.00 0.00 60 1007.6
20260904192006 94 153 1.0 3.0 0.00 0.00 0.00 62 1007.6
20260904191506 95 153 2.0 6.0 0.00 0.00 0.00 60 1007.6
20260904191006 95 165 1.0 3.0 0.00 0.00 0.00 62 1007.5
20260904190505 95 165 2.0 5.0 0.00 0.00 0.00 61 1007.6
20260904190006 95 169 1.0 3.0 0.00 0.00 0.00 61 1007.6
20260904185505 95 169 1.0 3.0 0.00 0.00 0.00 60 1007.6
20260904185005 95 147 1.0 3.0 0.00 0.00 0.00 61 1007.6
20260904184505 95 160 1.0 7.0 0.00 0.00 0.00 60 1007.6
20260904184006 95 174 3.0 7.0 0.00 0.00 0.00 60 1007.6
20260904183506 95 155 1.0 3.0 0.00 0.00 0.00 61 1007.6
20260904183006 94 152 1.0 8.0 0.00 0.00 0.00 61 1007.6
20260904182505 94 74 1.0 8.0 0.00 0.00 0.00 60 1007.7
20260904182006 94 175 2.0 6.0 0.00 0.00 0.00 61 1007.7
20260904181506 94 137 2.0 6.0 0.00 0.00 0.00 61 1007.7
20260904181005 94 163 1.0 5.0 0.00 0.00 0.00 61 1007.7
20260904180506 94 163 2.0 6.0 0.00 0.00 0.00 61 1007.7
20260904180005 94 161 2.0 6.0 0.00 0.00 0.00 62 1007.7
20260904175505 93 161 1.0 3.0 0.00 0.00 0.00 62 1007.7
20260904175006 93 161 2.0 5.0 0.00 0.00 0.00 60 1007.8
20260904174505 94 161 3.0 6.0 0.00 0.00 0.00 61 1007.8
20260904173005 93 167 0.0 3.0 0.00 0.00 0.00 62 1007.7
20260904172505 93 167 1.0 3.0 0.00 0.00 0.00 61 1007.8
20260904172006 93 167 3.0 6.0 0.00 0.00 0.00 63 1007.8
20260904171506 92 163 1.0 6.0 0.00 0.00 0.00 64 1007.8
20260904171006 92 161 0.0 1.0 0.00 0.00 0.00 64 1007.8
20260904170505 92 161 1.0 2.0 0.00 0.00 0.00 65 1007.8
20260904170005 92 161 0.0 3.0 0.00 0.00 0.00 65 1007.8
20260904165505 92 161 1.0 2.0 0.00 0.00 0.00 63 1007.9